Weather History for Orlando, FL

Change the Weather History Date:

Thursday, November 22, 2012

  Actual Average Record
Temperature  
Mean Temperature 61 °F -  
Max Temperature 70 °F 74 °F 82 °F (1997)
Min Temperature 50 °F 57 °F 39 °F (2000)
Degree Days  
Heating Degree Days 4    
Growing Degree Days 11 (Base 50)    
Moisture  
Dew Point 39 °F    
Average Humidity 51    
Maximum Humidity 77    
Minimum Humidity 22    
Precipitation  
Precipitation 0.00 in - - ()
Sea Level Pressure  
Sea Level Pressure 30.14 in    
Wind  
Wind Speed 9 mph (North)    
Max Wind Speed 18 mph    
Max Gust Speed 28 mph    
Visibility 10 miles    
Events      
Averages and records for this station are not official NWS values.
T = Trace of Precipitation, MM = Missing Value Source: NWS Daily Summary

Daily Weather History Graph

Daily Weather History Graph

Search for Another Location

Airport:

Trip Planner

Search our weather history database for the weather conditions in past years. The results will help you decide how hot, cold, wet, or windy it might be!

Date:

Astronomy

Nov. 22, 2012 Rise Set
Actual Time 6:53 AM EST 5:29 PM EST
Civil Twilight 6:28 AM EST 5:54 PM EST
Nautical Twilight 5:59 AM EST 6:23 PM EST
Astronomical Twilight 5:31 AM EST 6:51 PM EST
Moon 1:52 PM EST (11/22) 1:36 AM EST (11/22)
Length of Visible Light 11h 25m
Length of Day
10h 35m
Waxing Gibbous, 71% of the Moon is Illuminated
Nov 22
Waxing Gibbous
Nov 28
Full
Dec 6
Last Quarter
Dec 13
New
Dec 20
First Quarter

Hourly Weather History & Observations

Time (EST) Temp. Dew Point Humidity Pressure Visibility Wind Dir Wind Speed Gust Speed Precip Events Conditions
12:53 AM 55.9 °F 48.0 °F 75% 30.10 in 10.0 mi NNW 5.8 mph - N/A   Clear
1:53 AM 55.9 °F 48.9 °F 77% 30.09 in 10.0 mi NW 6.9 mph - N/A   Clear
2:53 AM 55.0 °F 46.9 °F 74% 30.09 in 10.0 mi NNW 6.9 mph - N/A   Clear
3:53 AM 55.0 °F 46.9 °F 74% 30.09 in 10.0 mi NNW 8.1 mph - N/A   Clear
4:53 AM 54.0 °F 46.0 °F 75% 30.09 in 10.0 mi NNW 9.2 mph - N/A   Clear
5:53 AM 54.0 °F 45.0 °F 72% 30.10 in 10.0 mi NNW 10.4 mph - N/A   Clear
6:53 AM 53.1 °F 45.0 °F 74% 30.12 in 10.0 mi NNW 8.1 mph - N/A   Clear
7:53 AM 54.0 °F 46.0 °F 75% 30.15 in 10.0 mi NNW 9.2 mph - N/A   Clear
8:53 AM 57.9 °F 46.0 °F 65% 30.16 in 10.0 mi North 11.5 mph - N/A   Clear
9:53 AM 62.1 °F 46.0 °F 56% 30.17 in 10.0 mi North 13.8 mph - N/A   Clear
10:53 AM 66.0 °F 44.1 °F 45% 30.17 in 10.0 mi North 10.4 mph - N/A   Clear
11:53 AM 69.1 °F 39.0 °F 33% 30.15 in 10.0 mi North 15.0 mph 21.9 mph N/A   Clear
12:53 PM 70.0 °F 39.9 °F 33% 30.13 in 10.0 mi NNE 13.8 mph 24.2 mph N/A   Clear
1:53 PM 70.0 °F 35.1 °F 28% 30.12 in 10.0 mi NNE 17.3 mph 25.3 mph N/A   Clear
2:53 PM 69.1 °F 30.9 °F 24% 30.11 in 10.0 mi North 18.4 mph 27.6 mph N/A   Clear
3:53 PM 68.0 °F 28.0 °F 22% 30.12 in 10.0 mi North 18.4 mph 27.6 mph N/A   Clear
4:53 PM 66.0 °F 30.9 °F 27% 30.14 in 10.0 mi North 8.1 mph - N/A   Clear
5:53 PM 62.1 °F 27.0 °F 26% 30.16 in 10.0 mi North 9.2 mph - N/A   Clear
6:53 PM 59.0 °F 27.0 °F 29% 30.18 in 10.0 mi NNE 10.4 mph - N/A   Clear
7:53 PM 57.0 °F 27.0 °F 32% 30.19 in 10.0 mi North 5.8 mph - N/A   Clear
8:53 PM 55.0 °F 30.0 °F 38% 30.21 in 10.0 mi NNE 4.6 mph - N/A   Clear
9:53 PM 54.0 °F 34.0 °F 47% 30.20 in 10.0 mi NNE 3.5 mph - N/A   Clear
10:53 PM 52.0 °F 36.0 °F 54% 30.21 in 10.0 mi Calm Calm - N/A   Clear
11:53 PM 50.0 °F 36.0 °F 59% 30.20 in 10.0 mi Calm Calm - N/A   Clear